Location: ???????
(55.4362°N, 38.1183°E)
Time: 21:33:36
(UTC+00:00)

DMSP 5D-2 F13 DEB - Visible Passes

Search period start: 28 January 2022 00:00
Search period end: 07 February 2022 00:00
Orbit: 802 x 863 km, 98.8° (Epoch: 28 January)

Date Brightness Start Highest point End Pass type
(mag) Time Alt. Az. Time Alt. Az. Time Alt. Az.
28 Jan ? 01:21:34 10° NE 01:25:58 25° E 01:30:18 10° SE visible
28 Jan ? 03:01:27 10° NNE 03:06:50 69° WNW 03:12:05 10° SSW visible
28 Jan ? 04:42:46 10° N 04:46:18 18° NW 04:49:50 10° W visible
28 Jan ? 14:34:37 10° SW 14:38:51 22° W 14:43:05 10° NW visible
29 Jan ? 01:04:51 10° NE 01:08:38 19° E 01:12:22 10° SE visible
29 Jan ? 02:44:20 10° NNE 02:49:45 89° WNW 02:55:04 10° SSW visible
29 Jan ? 04:25:24 10° N 04:29:27 22° NW 04:33:28 10° W visible
30 Jan ? 00:48:25 10° NE 00:51:16 14° E 00:54:05 10° ESE visible
30 Jan ? 02:27:13 10° NNE 02:32:37 71° ESE 02:37:54 10° S visible
30 Jan ? 04:08:06 10° N 04:12:34 27° NW 04:16:58 10° WSW visible
31 Jan ? 00:32:52 10° ENE 00:33:50 10° E 00:34:47 10° E visible
31 Jan ? 02:10:10 10° NNE 02:15:27 54° E 02:20:37 10° S visible
31 Jan ? 03:50:49 10° N 03:55:37 34° WNW 04:00:20 10° WSW visible
01 Feb ? 01:53:10 10° NNE 01:58:14 41° E 02:03:12 10° SSE visible
01 Feb ? 03:33:35 10° N 03:38:38 43° WNW 03:43:36 10° SW visible
01 Feb ? 15:08:49 10° WSW 15:11:19 13° W 15:13:48 10° NW visible
02 Feb ? 01:36:13 10° NNE 01:40:58 31° E 01:45:38 10° SSE visible
02 Feb ? 03:16:22 10° N 03:21:36 55° WNW 03:26:44 10° SW visible
02 Feb ? 14:50:20 10° SW 14:53:54 17° W 14:57:29 10° NW visible
03 Feb ? 01:19:21 10° NE 01:23:38 24° E 01:27:52 10° SE visible
03 Feb ? 02:59:11 10° NNE 03:04:31 72° WNW 03:09:46 10° SSW visible
04 Feb ? 01:02:39 10° NE 01:06:16 18° E 01:09:50 10° SE visible
04 Feb ? 02:42:01 10° NNE 02:47:24 88° ESE 02:52:41 10° SSW visible
04 Feb ? 04:23:04 10° N 04:27:08 23° NW 04:31:10 10° W visible
05 Feb ? 00:46:14 10° NE 00:48:50 14° E 00:51:26 10° ESE visible
05 Feb ? 02:24:53 10° NNE 02:30:14 68° ESE 02:35:29 10° S visible
05 Feb ? 04:05:44 10° N 04:10:12 28° NW 04:14:37 10° WSW visible
06 Feb ? 02:07:48 10° NNE 02:13:01 52° E 02:18:08 10° S visible
06 Feb ? 03:48:25 10° N 03:53:13 35° WNW 03:57:57 10° WSW visible
